QPF
0.01 0.02 0.02 0.02 0.01 0.01 0.01 0.00 0.00 0.00 0.00 0.00 0.00 0.00 0.00 0.00 0.01 0.01 0.01 0.01 0.02 0.02 0.02 0.03 0.03 0.03 0.03 0.02 0.02 0.02 0.01 0.01 0.01 0.02 0.01 0.01 0.02 0.02 0.01 0.01 0.01 0.01 0.00
0.02 0.03 0.03 0.02 0.01 0.01 0.00 0.00 0.00 0.00 0.00 0.00 0.00 0.00 0.00 0.00 0.00 0.01 0.02 0.01 0.02 0.01 0.01 0.03 0.05 0.04 0.04 0.03 0.04 0.03 0.02 0.02 0.02 0.02 0.02 0.01 0.01 0.02 0.02 0.01 0.01 0.01 0.00
0.02 0.03 0.03 0.02 0.01 0.00 0.00 0.00 0.00 0.00 0.00 0.00 0.00 0.00 0.00 0.00 0.00 0.01 0.02 0.02 0.02 0.01 0.01 0.02 0.04 0.05 0.05 0.04 0.04 0.04 0.03 0.02 0.02 0.02 0.02 0.02 0.02 0.02 0.02 0.01 0.01 0.01 0.01
0.01 0.03 0.03 0.03 0.02 0.00 0.00 0.00 0.00 0.00 0.00 0.00 0.00 0.00 0.00 0.00 0.00 0.01 0.01 0.02 0.02 0.01 0.00 0.01 0.01 0.03 0.04 0.04 0.04 0.04 0.04 0.02 0.02 0.02 0.02 0.02 0.02 0.02 0.02 0.02 0.02 0.02 0.01
0.01 0.02 0.03 0.03 0.03 0.01 0.00 0.00 0.00 0.00 0.00 0.00 0.00 0.00 0.00 0.00 0.00 0.00 0.01 0.01 0.01 0.01 0.01 0.01 0.01 0.01 0.02 0.03 0.04 0.05 0.05 0.03 0.02 0.02 0.01 0.01 0.01 0.01 0.02 0.03 0.03 0.02 0.02
0.01 0.02 0.04 0.04 0.04 0.02 0.00 0.00 0.00 0.00 0.00 0.00 0.00 0.00 0.00 0.00 0.01 0.01 0.01 0.01 0.01 0.02 0.01 0.01 0.01 0.01 0.01 0.01 0.03 0.04 0.04 0.03 0.02 0.02 0.02 0.01 0.01 0.02 0.03 0.02 0.02 0.02 0.03
0.01 0.03 0.06 0.06 0.05 0.02 0.01 0.01 0.00 0.00 0.00 0.00 0.01 0.01 0.00 0.00 0.01 0.01 0.01 0.01 0.01 0.02 0.02 0.02 0.01 0.00 0.01 0.01 0.02 0.02 0.03 0.03 0.02 0.02 0.02 0.02 0.02 0.02 0.01 0.01 0.02 0.02 0.02
0.03 0.04 0.08 0.08 0.06 0.03 0.01 0.01 0.01 0.00 0.00 0.00 0.01 0.01 0.01 0.01 0.00 0.01 0.01 0.01 0.01 0.02 0.02 0.02 0.01 0.01 0.01 0.01 0.01 0.01 0.02 0.03 0.03 0.03 0.02 0.02 0.02 0.01 0.01 0.01 0.01 0.01 0.02
0.05 0.05 0.07 0.08 0.06 0.03 0.01 0.01 0.01 0.01 0.01 0.00 0.00 0.01 0.01 0.01 0.00 0.00 0.01 0.01 0.02 0.02 0.02 0.02 0.01 0.01 0.01 0.01 0.01 0.01 0.01 0.01 0.02 0.02 0.02 0.01 0.01 0.01 0.01 0.01 0.01 0.02 0.02
0.04 0.05 0.08 0.08 0.06 0.03 0.01 0.01 0.01 0.01 0.01 0.01 0.01 0.00 0.00 0.00 0.00 0.00 0.00 0.01 0.02 0.02 0.02 0.01 0.01 0.01 0.02 0.03 0.03 0.02 0.01 0.01 0.01 0.02 0.02 0.02 0.02 0.02 0.02 0.02 0.02 0.02 0.01
0.03 0.03 0.05 0.07 0.06 0.03 0.02 0.01 0.01 0.01 0.01 0.01 0.01 0.01 0.01 0.00 0.00 0.00 0.00 0.01 0.03 0.03 0.02 0.01 0.01 0.01 0.02 0.04 0.06 0.07 0.06 0.03 0.02 0.03 0.04 0.04 0.03 0.03 0.02 0.02 0.01 0.01 0.01
0.03 0.03 0.03 0.03 0.04 0.03 0.02 0.02 0.01 0.01 0.01 0.01 0.01 0.01 0.01 0.01 0.01 0.01 0.01 0.01 0.02 0.03 0.03 0.02 0.01 0.01 0.01 0.02 0.04 0.06 0.07 0.07 0.07 0.07 0.06 0.03 0.03 0.02 0.02 0.02 0.01 0.01 0.01
0.02 0.04 0.05 0.04 0.03 0.03 0.03 0.02 0.02 0.02 0.02 0.01 0.01 0.01 0.01 0.02 0.01 0.01 0.01 0.01 0.02 0.02 0.03 0.02 0.02 0.01 0.01 0.01 0.02 0.03 0.06 0.07 0.08 0.08 0.06 0.04 0.03 0.02 0.02 0.02 0.02 0.02 0.02
0.01 0.03 0.06 0.07 0.06 0.05 0.04 0.04 0.03 0.03 0.03 0.03 0.02 0.02 0.02 0.02 0.01 0.01 0.01 0.01 0.02 0.02 0.03 0.03 0.02 0.02 0.01 0.01 0.02 0.02 0.04 0.07 0.08 0.07 0.07 0.06 0.03 0.02 0.01 0.01 0.01 0.01 0.01
0.01 0.01 0.02 0.04 0.05 0.05 0.05 0.05 0.05 0.05 0.04 0.03 0.03 0.03 0.03 0.02 0.02 0.02 0.02 0.02 0.02 0.02 0.02 0.02 0.02 0.02 0.02 0.02 0.02 0.02 0.03 0.05 0.08 0.08 0.09 0.09 0.06 0.03 0.02 0.01 0.01 0.01 0.01
0.02 0.01 0.01 0.02 0.02 0.03 0.06 0.07 0.06 0.05 0.05 0.04 0.04 0.04 0.04 0.03 0.02 0.02 0.02 0.02 0.02 0.03 0.03 0.03 0.03 0.03 0.04 0.05 0.05 0.04 0.03 0.03 0.04 0.05 0.05 0.07 0.08 0.06 0.03 0.01 0.01 0.01 0.01
0.06 0.03 0.02 0.02 0.02 0.02 0.03 0.06 0.07 0.07 0.06 0.05 0.05 0.05 0.05 0.04 0.03 0.03 0.02 0.02 0.03 0.03 0.04 0.03 0.03 0.05 0.05 0.05 0.05 0.04 0.03 0.03 0.03 0.03 0.03 0.04 0.05 0.06 0.05 0.03 0.02 0.02 0.02
0.07 0.09 0.06 0.03 0.02 0.03 0.03 0.04 0.05 0.06 0.06 0.06 0.05 0.05 0.05 0.05 0.05 0.05 0.04 0.04 0.04 0.04 0.05 0.05 0.05 0.05 0.05 0.04 0.03 0.03 0.03 0.03 0.02 0.03 0.03 0.02 0.03 0.04 0.04 0.03 0.02 0.02 0.02
0.05 0.07 0.09 0.08 0.06 0.04 0.03 0.04 0.04 0.04 0.05 0.06 0.06 0.05 0.05 0.05 0.05 0.05 0.06 0.06 0.05 0.04 0.04 0.05 0.06 0.05 0.05 0.04 0.03 0.03 0.02 0.02 0.02 0.02 0.02 0.02 0.02 0.03 0.03 0.03 0.02 0.02 0.02
0.05 0.05 0.06 0.08 0.10 0.08 0.05 0.04 0.04 0.04 0.04 0.04 0.05 0.05 0.05 0.05 0.04 0.04 0.04 0.04 0.04 0.04 0.04 0.05 0.05 0.05 0.04 0.03 0.03 0.03 0.02 0.02 0.01 0.01 0.02 0.02 0.02 0.02 0.03 0.03 0.02 0.02 0.02
0.07 0.07 0.06 0.05 0.07 0.10 0.11 0.08 0.05 0.04 0.04 0.04 0.04 0.04 0.04 0.04 0.04 0.04 0.04 0.04 0.04 0.04 0.04 0.04 0.04 0.03 0.03 0.02 0.02 0.02 0.02 0.01 0.01 0.01 0.01 0.01 0.01 0.02 0.03 0.03 0.02 0.02 0.02
0.07 0.09 0.09 0.06 0.04 0.05 0.09 0.11 0.08 0.06 0.05 0.03 0.03 0.03 0.03 0.03 0.03 0.03 0.04 0.04 0.04 0.03 0.03 0.03 0.03 0.02 0.02 0.01 0.01 0.01 0.02 0.02 0.01 0.01 0.01 0.01 0.01 0.01 0.02 0.02 0.03 0.03 0.02
0.05 0.07 0.09 0.09 0.07 0.04 0.04 0.06 0.08 0.07 0.06 0.03 0.02 0.01 0.02 0.02 0.02 0.02 0.03 0.03 0.03 0.03 0.03 0.02 0.02 0.02 0.01 0.01 0.01 0.02 0.01 0.01 0.01 0.01 0.01 0.01 0.01 0.01 0.01 0.01 0.02 0.02 0.02
0.03 0.05 0.06 0.07 0.08 0.08 0.06 0.04 0.05 0.06 0.07 0.05 0.03 0.02 0.01 0.01 0.01 0.01 0.01 0.02 0.02 0.02 0.02 0.02 0.01 0.01 0.01 0.01 0.01 0.01 0.02 0.02 0.02 0.02 0.02 0.02 0.01 0.01 0.01 0.01 0.02 0.01 0.01
0.02 0.04 0.05 0.05 0.05 0.07 0.08 0.07 0.06 0.05 0.06 0.05 0.04 0.03 0.02 0.01 0.01 0.01 0.01 0.01 0.01 0.01 0.01 0.01 0.01 0.01 0.01 0.01 0.01 0.02 0.03 0.04 0.03 0.02 0.02 0.02 0.01 0.01 0.01 0.02 0.02 0.02 0.02
0.02 0.03 0.04 0.05 0.05 0.05 0.06 0.07 0.06 0.05 0.05 0.04 0.04 0.03 0.03 0.02 0.01 0.01 0.01 0.01 0.01 0.01 0.01 0.01 0.01 0.01 0.01 0.01 0.01 0.02 0.02 0.02 0.02 0.02 0.01 0.01 0.01 0.01 0.02 0.01 0.02 0.02 0.03
MSLP
1021.49 1021.50 1021.49 1021.48 1021.47 1021.47 1021.48 1021.47 1021.43 1021.36 1021.25 1021.11 1020.97 1020.85 1020.79 1020.79 1020.86 1021.00 1021.18 1021.38 1021.55 1021.69 1021.77 1021.80 1021.79 1021.76 1021.73 1021.72 1021.74 1021.80 1021.90 1022.01 1022.13 1022.24 1022.34 1022.42 1022.49 1022.54 1022.58 1022.63 1022.69 1022.77 1022.88
1021.54 1021.55 1021.53 1021.52 1021.53 1021.55 1021.57 1021.59 1021.57 1021.51 1021.41 1021.25 1021.08 1020.92 1020.79 1020.73 1020.73 1020.81 1020.93 1021.09 1021.24 1021.37 1021.46 1021.51 1021.52 1021.52 1021.52 1021.54 1021.58 1021.66 1021.76 1021.88 1022.01 1022.14 1022.25 1022.36 1022.44 1022.51 1022.58 1022.64 1022.72 1022.82 1022.94
1021.50 1021.51 1021.50 1021.50 1021.52 1021.56 1021.62 1021.68 1021.70 1021.68 1021.59 1021.44 1021.26 1021.06 1020.87 1020.74 1020.66 1020.64 1020.69 1020.77 1020.88 1020.97 1021.06 1021.12 1021.16 1021.19 1021.22 1021.27 1021.34 1021.43 1021.54 1021.66 1021.80 1021.93 1022.06 1022.18 1022.29 1022.38 1022.48 1022.57 1022.68 1022.80 1022.94
1021.46 1021.45 1021.44 1021.44 1021.47 1021.54 1021.64 1021.74 1021.81 1021.82 1021.77 1021.64 1021.46 1021.24 1021.01 1020.80 1020.64 1020.53 1020.48 1020.48 1020.51 1020.56 1020.61 1020.67 1020.73 1020.78 1020.85 1020.92 1021.01 1021.11 1021.22 1021.35 1021.47 1021.60 1021.73 1021.86 1021.99 1022.11 1022.24 1022.38 1022.52 1022.68 1022.85
1021.48 1021.45 1021.42 1021.42 1021.45 1021.53 1021.65 1021.77 1021.88 1021.94 1021.92 1021.82 1021.65 1021.43 1021.17 1020.92 1020.68 1020.49 1020.34 1020.25 1020.20 1020.18 1020.19 1020.23 1020.28 1020.35 1020.43 1020.52 1020.62 1020.72 1020.83 1020.93 1021.04 1021.16 1021.28 1021.41 1021.55 1021.70 1021.87 1022.04 1022.23 1022.44 1022.66
1021.67 1021.59 1021.53 1021.49 1021.51 1021.57 1021.68 1021.81 1021.93 1022.01 1022.02 1021.95 1021.81 1021.59 1021.33 1021.05 1020.77 1020.51 1020.29 1020.11 1019.98 1019.90 1019.85 1019.85 1019.88 1019.94 1020.02 1020.11 1020.20 1020.29 1020.38 1020.47 1020.55 1020.63 1020.73 1020.85 1020.99 1021.16 1021.36 1021.58 1021.83 1022.09 1022.36
1022.07 1021.93 1021.80 1021.72 1021.68 1021.71 1021.78 1021.88 1021.98 1022.05 1022.07 1022.02 1021.90 1021.71 1021.47 1021.19 1020.89 1020.60 1020.33 1020.09 1019.89 1019.74 1019.64 1019.58 1019.57 1019.60 1019.65 1019.73 1019.80 1019.88 1019.94 1019.99 1020.03 1020.08 1020.15 1020.24 1020.38 1020.55 1020.77 1021.03 1021.32 1021.63 1021.96
1022.69 1022.47 1022.27 1022.11 1022.01 1021.96 1021.96 1021.99 1022.04 1022.08 1022.08 1022.03 1021.93 1021.77 1021.56 1021.31 1021.03 1020.74 1020.45 1020.17 1019.92 1019.71 1019.54 1019.42 1019.36 1019.34 1019.36 1019.40 1019.45 1019.49 1019.52 1019.53 1019.53 1019.54 1019.57 1019.64 1019.75 1019.92 1020.14 1020.42 1020.74 1021.09 1021.47
1023.48 1023.19 1022.91 1022.67 1022.47 1022.33 1022.23 1022.17 1022.14 1022.11 1022.06 1022.00 1021.90 1021.77 1021.60 1021.39 1021.15 1020.89 1020.61 1020.31 1020.03 1019.76 1019.53 1019.35 1019.22 1019.14 1019.11 1019.11 1019.12 1019.13 1019.13 1019.11 1019.08 1019.05 1019.04 1019.07 1019.15 1019.30 1019.51 1019.78 1020.12 1020.50 1020.91
1024.38 1024.01 1023.65 1023.32 1023.03 1022.79 1022.58 1022.42 1022.28 1022.16 1022.05 1021.94 1021.83 1021.72 1021.58 1021.43 1021.23 1021.01 1020.74 1020.45 1020.14 1019.83 1019.54 1019.28 1019.08 1018.94 1018.84 1018.79 1018.77 1018.75 1018.73 1018.69 1018.64 1018.59 1018.55 1018.54 1018.59 1018.70 1018.89 1019.15 1019.48 1019.86 1020.28
1025.26 1024.83 1024.41 1024.01 1023.64 1023.30 1022.99 1022.71 1022.46 1022.24 1022.05 1021.89 1021.75 1021.64 1021.52 1021.40 1021.25 1021.06 1020.81 1020.52 1020.19 1019.83 1019.48 1019.15 1018.87 1018.65 1018.50 1018.40 1018.34 1018.31 1018.27 1018.23 1018.17 1018.11 1018.06 1018.03 1018.04 1018.12 1018.28 1018.50 1018.81 1019.18 1019.60
1026.04 1025.57 1025.10 1024.65 1024.22 1023.80 1023.41 1023.03 1022.68 1022.37 1022.09 1021.86 1021.68 1021.54 1021.42 1021.31 1021.18 1021.01 1020.77 1020.47 1020.11 1019.71 1019.29 1018.89 1018.53 1018.24 1018.02 1017.88 1017.79 1017.74 1017.71 1017.67 1017.63 1017.58 1017.52 1017.49 1017.48 1017.53 1017.65 1017.84 1018.11 1018.45 1018.85
1026.64 1026.15 1025.67 1025.19 1024.73 1024.27 1023.81 1023.36 1022.93 1022.53 1022.17 1021.86 1021.62 1021.43 1021.29 1021.16 1021.03 1020.85 1020.60 1020.28 1019.89 1019.43 1018.95 1018.48 1018.05 1017.68 1017.41 1017.22 1017.10 1017.05 1017.02 1017.01 1016.99 1016.96 1016.92 1016.88 1016.87 1016.90 1016.98 1017.14 1017.37 1017.67 1018.05
1027.03 1026.55 1026.07 1025.60 1025.13 1024.65 1024.17 1023.67 1023.18 1022.71 1022.27 1021.89 1021.58 1021.33 1021.14 1020.97 1020.81 1020.60 1020.33 1019.97 1019.54 1019.03 1018.49 1017.95 1017.45 1017.02 1016.69 1016.46 1016.32 1016.26 1016.24 1016.25 1016.25 1016.25 1016.23 1016.21 1016.20 1016.21 1016.27 1016.39 1016.59 1016.86 1017.21
1027.22 1026.76 1026.31 1025.86 1025.41 1024.94 1024.45 1023.94 1023.42 1022.90 1022.40 1021.95 1021.56 1021.24 1020.98 1020.76 1020.54 1020.29 1019.97 1019.58 1019.10 1018.55 1017.96 1017.37 1016.81 1016.33 1015.95 1015.68 1015.51 1015.44 1015.42 1015.44 1015.47 1015.49 1015.49 1015.48 1015.47 1015.48 1015.52 1015.61 1015.78 1016.03 1016.35
1027.24 1026.81 1026.39 1025.98 1025.57 1025.13 1024.66 1024.15 1023.61 1023.06 1022.52 1022.01 1021.55 1021.16 1020.83 1020.53 1020.25 1019.94 1019.59 1019.16 1018.65 1018.07 1017.45 1016.82 1016.22 1015.70 1015.28 1014.97 1014.78 1014.68 1014.65 1014.66 1014.70 1014.72 1014.73 1014.73 1014.72 1014.71 1014.74 1014.82 1014.97 1015.19 1015.51
1027.12 1026.73 1026.35 1025.98 1025.61 1025.20 1024.76 1024.27 1023.74 1023.17 1022.59 1022.04 1021.52 1021.06 1020.66 1020.30 1019.95 1019.60 1019.20 1018.75 1018.22 1017.64 1017.00 1016.36 1015.75 1015.21 1014.75 1014.41 1014.18 1014.05 1013.99 1013.98 1014.00 1014.01 1014.01 1014.00 1013.98 1013.96 1013.97 1014.04 1014.17 1014.39 1014.70
1026.91 1026.55 1026.20 1025.87 1025.53 1025.16 1024.75 1024.28 1023.75 1023.19 1022.59 1022.00 1021.44 1020.93 1020.46 1020.04 1019.65 1019.26 1018.84 1018.38 1017.85 1017.27 1016.65 1016.02 1015.41 1014.86 1014.38 1014.01 1013.74 1013.57 1013.47 1013.42 1013.40 1013.38 1013.36 1013.33 1013.29 1013.25 1013.25 1013.29 1013.41 1013.62 1013.94
1026.62 1026.28 1025.95 1025.64 1025.33 1024.99 1024.60 1024.15 1023.64 1023.07 1022.47 1021.86 1021.27 1020.72 1020.21 1019.75 1019.33 1018.91 1018.48 1018.02 1017.52 1016.96 1016.37 1015.76 1015.16 1014.61 1014.13 1013.73 1013.42 1013.20 1013.05 1012.96 1012.89 1012.84 1012.79 1012.72 1012.66 1012.60 1012.58 1012.61 1012.72 1012.93 1013.25
1026.24 1025.90 1025.59 1025.29 1024.98 1024.65 1024.28 1023.85 1023.35 1022.79 1022.19 1021.58 1020.98 1020.41 1019.88 1019.40 1018.96 1018.53 1018.11 1017.65 1017.17 1016.64 1016.08 1015.50 1014.93 1014.38 1013.89 1013.47 1013.13 1012.87 1012.68 1012.54 1012.44 1012.35 1012.27 1012.18 1012.10 1012.03 1011.99 1012.01 1012.11 1012.32 1012.64
1025.75 1025.41 1025.09 1024.78 1024.48 1024.15 1023.78 1023.36 1022.87 1022.33 1021.75 1021.15 1020.56 1019.99 1019.46 1018.97 1018.52 1018.09 1017.67 1017.23 1016.76 1016.26 1015.72 1015.16 1014.60 1014.06 1013.56 1013.13 1012.77 1012.48 1012.26 1012.10 1011.97 1011.87 1011.78 1011.69 1011.60 1011.53 1011.49 1011.51 1011.61 1011.81 1012.14
1025.13 1024.77 1024.44 1024.12 1023.80 1023.47 1023.10 1022.68 1022.22 1021.70 1021.14 1020.57 1019.99 1019.44 1018.93 1018.45 1018.00 1017.58 1017.16 1016.72 1016.26 1015.76 1015.23 1014.68 1014.11 1013.57 1013.07 1012.62 1012.25 1011.95 1011.73 1011.57 1011.45 1011.36 1011.29 1011.23 1011.17 1011.12 1011.10 1011.13 1011.23 1011.44 1011.77
1024.37 1023.99 1023.63 1023.30 1022.97 1022.62 1022.25 1021.85 1021.40 1020.91 1020.38 1019.85 1019.31 1018.80 1018.31 1017.85 1017.41 1016.99 1016.57 1016.12 1015.65 1015.13 1014.59 1014.02 1013.44 1012.89 1012.38 1011.93 1011.55 1011.27 1011.06 1010.93 1010.86 1010.82 1010.81 1010.80 1010.80 1010.80 1010.82 1010.88 1011.01 1011.23 1011.56
1023.47 1023.08 1022.71 1022.35 1022.00 1021.65 1021.28 1020.88 1020.46 1020.00 1019.52 1019.03 1018.55 1018.08 1017.62 1017.19 1016.77 1016.35 1015.92 1015.45 1014.95 1014.40 1013.82 1013.22 1012.61 1012.04 1011.51 1011.06 1010.70 1010.45 1010.29 1010.22 1010.22 1010.27 1010.34 1010.43 1010.51 1010.59 1010.67 1010.78 1010.94 1011.18 1011.52
1022.49 1022.08 1021.69 1021.32 1020.96 1020.60 1020.23 1019.84 1019.44 1019.02 1018.58 1018.15 1017.72 1017.30 1016.90 1016.50 1016.10 1015.68 1015.23 1014.74 1014.20 1013.61 1012.99 1012.34 1011.70 1011.10 1010.56 1010.11 1009.78 1009.57 1009.47 1009.48 1009.57 1009.73 1009.91 1010.10 1010.29 1010.46 1010.63 1010.80 1011.01 1011.28 1011.63
1021.45 1021.03 1020.63 1020.25 1019.88 1019.51 1019.14 1018.77 1018.38 1018.00 1017.61 1017.23 1016.85 1016.49 1016.13 1015.77 1015.40 1014.99 1014.53 1014.02 1013.45 1012.82 1012.15 1011.46 1010.78 1010.16 1009.61 1009.18 1008.87 1008.71 1008.68 1008.77 1008.97 1009.23 1009.52 1009.83 1010.12 1010.39 1010.65 1010.90 1011.17 1011.48 1011.86
Thickness
5667 5667 5667 5666 5667 5667 5667 5667 5667 5667 5667 5667 5666 5666 5665 5664 5664 5662 5660 5659 5659 5659 5658 5658 5657 5657 5656 5655 5654 5653 5652 5652 5651 5649 5648 5647 5646 5644 5643 5642 5640 5639 5638
5662 5662 5662 5661 5661 5662 5662 5662 5662 5662 5662 5661 5661 5660 5659 5659 5658 5657 5656 5654 5653 5653 5653 5653 5652 5652 5651 5650 5649 5648 5647 5646 5646 5645 5643 5642 5640 5639 5638 5636 5635 5634 5632
5656 5656 5656 5656 5656 5656 5656 5657 5656 5656 5656 5655 5655 5654 5654 5653 5653 5652 5651 5650 5649 5648 5647 5647 5646 5646 5645 5645 5644 5643 5642 5641 5640 5639 5638 5637 5635 5634 5632 5631 5630 5628 5627
5650 5650 5651 5651 5651 5651 5651 5651 5651 5651 5650 5650 5649 5648 5647 5647 5647 5646 5646 5645 5644 5643 5642 5641 5640 5640 5639 5639 5638 5637 5637 5636 5634 5634 5633 5632 5630 5629 5627 5626 5624 5623 5621
5644 5645 5646 5646 5645 5646 5646 5646 5646 5646 5645 5643 5642 5641 5641 5641 5641 5640 5640 5639 5638 5637 5637 5636 5635 5634 5634 5633 5632 5632 5631 5630 5629 5628 5627 5626 5625 5623 5622 5620 5619 5618 5616
5638 5639 5640 5640 5640 5640 5640 5640 5639 5639 5638 5637 5636 5635 5634 5634 5634 5634 5634 5633 5632 5631 5631 5630 5630 5629 5628 5627 5627 5626 5625 5624 5623 5622 5621 5620 5618 5617 5616 5615 5613 5612 5610
5632 5633 5634 5634 5634 5634 5635 5635 5633 5632 5631 5631 5630 5628 5627 5627 5628 5627 5627 5627 5626 5625 5624 5624 5623 5622 5622 5621 5620 5620 5619 5618 5617 5616 5614 5614 5612 5611 5610 5608 5607 5606 5604
5626 5627 5628 5629 5628 5629 5628 5628 5628 5627 5625 5626 5626 5625 5624 5622 5622 5621 5621 5620 5620 5619 5618 5617 5617 5616 5615 5615 5614 5613 5613 5612 5611 5610 5608 5607 5606 5605 5604 5602 5601 5599 5598
5618 5620 5621 5622 5622 5623 5623 5622 5622 5622 5620 5619 5621 5622 5622 5623 5620 5616 5615 5614 5613 5612 5611 5610 5610 5609 5608 5608 5607 5606 5606 5605 5604 5603 5602 5601 5600 5599 5597 5596 5594 5593 5591
5612 5613 5614 5615 5615 5616 5616 5616 5616 5617 5616 5614 5613 5614 5616 5618 5616 5613 5610 5608 5606 5605 5604 5603 5603 5602 5601 5600 5600 5599 5598 5598 5597 5596 5595 5594 5593 5592 5590 5589 5587 5585 5583
5605 5606 5607 5607 5608 5609 5609 5609 5610 5610 5611 5610 5609 5608 5608 5607 5609 5610 5608 5603 5600 5598 5597 5596 5595 5594 5594 5593 5592 5591 5591 5590 5589 5588 5588 5587 5585 5584 5582 5581 5580 5578 5576
5598 5599 5600 5600 5601 5602 5602 5603 5603 5603 5604 5604 5603 5602 5603 5602 5602 5602 5601 5598 5595 5592 5590 5588 5588 5587 5586 5585 5584 5583 5583 5582 5581 5580 5579 5578 5577 5575 5574 5573 5571 5569 5568
5591 5593 5593 5594 5595 5595 5595 5595 5595 5596 5596 5596 5596 5596 5596 5596 5595 5594 5593 5591 5588 5585 5582 5581 5580 5579 5578 5578 5576 5575 5575 5574 5573 5572 5570 5569 5567 5566 5565 5563 5562 5560 5559
5585 5586 5586 5587 5588 5588 5587 5588 5588 5588 5588 5588 5588 5588 5587 5587 5586 5586 5585 5583 5580 5579 5577 5576 5573 5571 5570 5569 5568 5567 5566 5565 5564 5563 5561 5560 5558 5557 5555 5554 5553 5551 5549
5576 5578 5578 5579 5580 5580 5580 5580 5580 5580 5580 5580 5580 5579 5579 5579 5578 5577 5577 5576 5575 5574 5573 5569 5566 5564 5562 5561 5560 5559 5558 5557 5556 5554 5552 5551 5549 5548 5546 5545 5543 5542 5540
5567 5569 5570 5570 5571 5572 5571 5572 5572 5572 5572 5572 5572 5572 5571 5570 5569 5568 5568 5568 5568 5568 5566 5563 5559 5556 5553 5552 5551 5550 5550 5548 5547 5545 5544 5542 5541 5539 5537 5536 5534 5532 5530
5558 5559 5561 5561 5562 5563 5563 5563 5564 5564 5564 5564 5563 5563 5563 5562 5561 5560 5559 5559 5558 5558 5556 5553 5549 5547 5544 5543 5542 5540 5540 5539 5538 5537 5535 5533 5532 5530 5529 5527 5525 5523 5521
5548 5549 5551 5552 5553 5554 5555 5555 5555 5555 5555 5555 5555 5555 5554 5553 5553 5552 5551 5550 5550 5549 5547 5545 5541 5538 5536 5534 5533 5531 5530 5530 5529 5528 5526 5524 5523 5521 5520 5518 5516 5514 5512
5537 5539 5541 5542 5543 5544 5545 5546 5546 5546 5546 5547 5547 5546 5546 5544 5544 5543 5542 5541 5541 5539 5538 5537 5534 5530 5528 5525 5524 5522 5521 5521 5520 5519 5517 5515 5514 5512 5511 5509 5507 5505 5503
5527 5529 5530 5532 5533 5534 5535 5535 5536 5536 5537 5537 5537 5537 5537 5536 5536 5535 5533 5532 5531 5530 5529 5527 5525 5522 5519 5516 5514 5514 5513 5512 5511 5509 5507 5506 5504 5503 5501 5500 5498 5496 5493
5515 5518 5519 5521 5522 5523 5524 5525 5526 5527 5527 5527 5527 5527 5527 5526 5525 5525 5524 5523 5521 5521 5519 5517 5515 5513 5510 5507 5507 5505 5504 5503 5502 5499 5497 5496 5495 5494 5492 5490 5488 5486 5483
5504 5506 5508 5510 5511 5513 5513 5514 5515 5516 5517 5517 5517 5516 5516 5515 5515 5514 5513 5513 5512 5511 5510 5508 5506 5505 5503 5500 5497 5495 5493 5493 5493 5489 5486 5486 5484 5483 5481 5480 5478 5475 5473
5492 5494 5496 5498 5499 5501 5502 5503 5503 5505 5506 5506 5506 5506 5506 5505 5504 5503 5502 5501 5500 5498 5498 5498 5497 5496 5493 5491 5487 5484 5482 5481 5481 5478 5474 5476 5473 5472 5470 5469 5466 5464 5462
5479 5482 5484 5486 5488 5489 5490 5490 5491 5493 5494 5494 5495 5495 5495 5495 5494 5493 5492 5491 5489 5488 5487 5485 5485 5484 5481 5478 5476 5474 5472 5468 5466 5464 5462 5463 5463 5461 5459 5457 5455 5453 5450
5465 5468 5471 5474 5476 5477 5477 5478 5479 5481 5481 5482 5482 5483 5483 5484 5483 5481 5481 5480 5478 5476 5474 5473 5472 5470 5468 5466 5464 5461 5459 5457 5456 5454 5450 5449 5450 5447 5446 5445 5443 5440 5438
5452 5454 5457 5460 5462 5464 5465 5466 5467 5469 5470 5470 5470 5470 5470 5471 5470 5469 5469 5469 5467 5465 5462 5461 5459 5457 5456 5454 5452 5451 5449 5446 5445 5443 5440 5436 5435 5432 5433 5434 5430 5428 5425